This is the latest recevied weather packets stored in our database for station/object SQ6ILB-11. If no packets are shown the sender has not sent any weather packets the latest 10 day(s).
| Time | Temp. | Humidity | Pressure | Rain* | Wind** | Luminosity | Snow |
|---|---|---|---|---|---|---|---|
| 1788368175 | 21.11° C | 59% | 991 hPa | - | - | - | - |
| 1788367275 | 21.11° C | 55% | 991 hPa | - | - | - | - |
| 1788366375 | 21.67° C | 56% | 991 hPa | - | - | - | - |
| 1788365497 | 21.67° C | 54% | 991 hPa | - | - | - | - |
| 1788364574 | 21.67° C | 57% | 990.9 hPa | - | - | - | - |
| 1788363674 | 21.67° C | 55% | 991.1 hPa | - | - | - | - |
| 1788362774 | 21.67° C | 56% | 991 hPa | - | - | - | - |
| 1788361874 | 21.67° C | 58% | 991.2 hPa | - | - | - | - |
| 1788360974 | 21.67° C | 57% | 991.2 hPa | - | - | - | - |
| 1788360074 | 21.11° C | 56% | 991.3 hPa | - | - | - | - |
| 1788359174 | 21.11° C | 58% | 991.4 hPa | - | - | - | - |
| 1788358273 | 21.11° C | 57% | 991.4 hPa | - | - | - | - |
| 1788357373 | 21.11° C | 57% | 991.6 hPa | - | - | - | - |
| 1788356473 | 21.11° C | 56% | 991.7 hPa | - | - | - | - |
| 1788355573 | 21.11° C | 57% | 991.7 hPa | - | - | - | - |
| 1788354673 | 21.11° C | 58% | 991.6 hPa | - | - | - | - |
| 1788353773 | 21.11° C | 58% | 991.9 hPa | - | - | - | - |
| 1788352873 | 21.11° C | 58% | 991.8 hPa | - | - | - | - |
| 1788351972 | 20.56° C | 59% | 991.9 hPa | - | - | - | - |
| 1788351072 | 20.56° C | 59% | 991.9 hPa | - | - | - | - |
| 1788350172 | 20.56° C | 58% | 992 hPa | - | - | - | - |
| 1788349272 | 20.56° C | 60% | 992.1 hPa | - | - | - | - |
| 1788348372 | 20.56° C | 60% | 992.2 hPa | - | - | - | - |
| 1788347472 | 20° C | 61% | 992.2 hPa | - | - | - | - |
| 1788346572 | 20° C | 63% | 992.5 hPa | - | - | - | - |
* Rain since midnight (hover to see other rain measurements)
** Current wind speed in m/s (hover to see current wind gust speed)